sat.trackr.live / text

‹ back to catalog

STARLINK-31045

NORAD 58541 · 2023-192L

PAYLOAD ACTIVE UNKNOWN

§ Identity

Operator
Country
US
Launch date
2023-12-08
Launch site
AFWTR
Launch vehicle
Mass (kg)
RCS (m²)

Purposes: comms

External: N2YO · Heavens-Above · Gunter

§ Orbital elements

Epoch: 2026-05-24T23:26:46.840128Z

Period
94.11 min
Inclination
53.1586°
Eccentricity
0.0001103
Mean motion
15.30188848 rev/d
Perigee alt
474.5 km
Apogee alt
476.0 km
Semi-major
6,853.4 km
B*
8.8315e-6
RAAN
145.2328°
Arg perigee
92.4867°
Mean anomaly
267.6260°
Rev number
13,657

§ Raw data

STARLINK-310451 58541U 23192L   26144.97693102 -.00000098  00000+0  88315-5 0  99912 58541  53.1586 145.2328 0001103  92.4867 267.6260 15.30188848136576

JSON: /api/v1/satellites/58541 · /tle

For live sub-satellite position, see the globe view (requires WebGL).

§ Visibility from observer

Set your observer location to see the next 7 days of passes ≥ 10°. The values pass through the URL so the page stays shareable.

No JS? Fill the form by hand. The geolocation button needs JavaScript.